Regional Weather Roundup
Issued by NWS Jackson, KY

Home | Current Version | Previous Version | Text Only | Print | Product List | Glossary On
Versions: 1 2 3 4 5 6 7 8 9 10 11 12 13 14 15 16 17 18 19 20 21 22 23 24 25 26 27 28 29 30 31 32 33 34 35 36 37 38 39 40 41 42 43 44 45 46 47 48 49 50
740
ASUS43 KJKL 281410
RWRJKL

EAST KENTUCKY HOURLY WEATHER ROUNDUP
NATIONAL WEATHER SERVICE JACKSON KY
1000 AM EDT TUE MAR 28 2017

NOTE: "FAIR" INDICATES FEW OR NO CLOUDS BELOW 12,000 FEET WITH
NO SIGNIFICANT WEATHER AND/OR OBSTRUCTIONS TO VISIBILITY.

* THESE REPORTS ARE NOT UNDER NWS QUALITY CONTROL AND MAY NOT
  REPORT WEATHER SUCH AS PRECIPITATION AND FOG.

KYZ079-080-083-085-087-088-110-112-115-119-120-281500
...EASTERN KENTUCKY...

CITY           SKY/WX    TMP DP  RH WIND       PRES   REMARKS
JACKSON        CLOUDY    58  55  90 VRB6      29.96R
LONDON         LGT RAIN  56  53  90 W7        29.99R FOG
SOMERSET*      CLOUDY    54  54 100 W3        30.01R FOG
MONTICELLO*    LGT RAIN  57  55  93 W15       30.01R
WILLIAMSBURG*  CLOUDY    55  55 100 W3        29.99R
MIDDLESBORO*   CLOUDY    59  55  87 SW3       29.99R
HARLAN APT*    CLOUDY    55  54  94 SW5       29.98R
PIKE CO APT*   CLOUDY    55  55 100 SW3       29.96R FOG
BIG SANDY APT* CLOUDY    56  56 100 CALM      29.95R
MOREHEAD APT*  CLOUDY    57  54  88 W5        29.96R
ASHLAND*       CLOUDY    55  55 100 CALM      29.92R
$$

KYZ035-036-041-042-044-050-067-078-099-281500
...CENTRAL KENTUCKY...

CITY           SKY/WX    TMP DP  RH WIND       PRES   REMARKS
MT STERLING*   CLOUDY    55  54  94 W5        29.97R FOG
FLEMING/MASON* CLOUDY    55  55  97 W9        29.95R
DANVILLE*      CLOUDY    55  52  88 W5        29.99R
LEXINGTON      CLOUDY    57  54  89 NW6       29.96R FOG
FRANKFORT      PTSUNNY   59  54  83 VRB5      29.95R
LOUISVILLE     DRIZZLE   58  54  86 NW6       29.97R FOG
LEBANON*       CLOUDY    55  55 100 SW3       29.98R FOG
GLASGOW*       CLOUDY    56  56 100 W5        29.99R
BOWLING GREEN  CLOUDY    58  54  86 W6        30.00R
$$

KYZ091>093-OHZ055-061-077-WVZ005-015-034-035-042-281500
...SOUTHERN OHIO/WEST VIRGINIA...

CITY           SKY/WX    TMP DP  RH WIND       PRES   REMARKS
COVINGTON      CLOUDY    55  53  93 N13       29.94R FOG
COLUMBUS       CLOUDY    56  54  93 N10       29.92R
DAYTON         CLOUDY    53  51  93 N14       29.95R
WILMINGTON     LGT RAIN  56  55  97 NW6       29.92R FOG
HUNTINGTON     CLOUDY    58  55  90 SW6       29.92R
CHARLESTON     CLOUDY    58  55  90 SW7       29.92R
PINEVILLE*     RAIN      56  53  91 MISG      29.99R
BECKLEY        LGT RAIN  53  52  96 W6        29.94R
BLUEFIELD      LGT RAIN  54  50  86 W8        29.95
LOGAN CO APT*  CLOUDY    55  55 100 VRB7      29.94R
$$

VAZ002-007-008-TNZ017-027-036-066-071-281500
...SOUTHWEST VIRGINIA/EAST TENNESSEE...

CITY           SKY/WX    TMP DP  RH WIND       PRES   REMARKS
WISE*          CLOUDY    55  55 100 W6        29.98S
JONESVILLE*    CLOUDY    57  55  94 CALM      30.00R FOG
ABINGDON*      CLOUDY    59  58  97 W8        29.97R
BRISTOL        CLOUDY    59  56  89 SW5       29.97R
MORRISTOWN*    CLOUDY    59  57  94 W7G13     29.97R
SEVIERVILLE*   CLOUDY    57  55  94 W8        29.99R
KNOXVILLE      CLOUDY    60  57  89 SW12      29.98R
LAFOLLETTE*    CLOUDY    63  55  77 VRB3      30.01R
OAK RIDGE      MOSUNNY   63  57  81 VRB6      29.99R
CROSSVILLE     CLOUDY    56  54  93 W8        30.01R
NASHVILLE      PTSUNNY   60  54  80 NW6       30.01S
$$

...KEY TO REMARKS...
VSB - VISIBILITY IN MILES
WCI - WIND CHILL INDEX
HX  - HEAT INDEX

$$




USA.gov is the U.S. government's official web portal to all federal, state and local government web resources and services.